カタログに戻る

COSMOS 2130

運用中軍事LEO
NORAD 21105·PAYLOAD·🇷🇺 Russia

打ち上げ Feb 12, 1991 から Plesetsk Cosmodrome

Loading…

次のパス (今後24時間)

TLE

最新Source: Space-Track

元期: Sep 14, 2026, 13:48 UTC

1 21105U 91009F   26257.57553421  .00000005  00000-0  12276-3 0  9998
2 21105  74.0328 328.0278 0042861 106.5068 321.1160 12.57182168633199

AllMySatでCOSMOS 2130をリアルタイム追跡

Download on the App Store